Regional Weather Roundup
Issued by NWS

Home | Current Version | Previous Version | Graphics & Text | Print | Product List | Glossary On
Versions: 1 2 3 4 5 6 7 8 9 10 11 12 13 14 15 16 17 18 19 20 21 22 23 24 25 26 27 28 29 30 31 32 33 34 35 36 37 38 39 40 41 42 43 44 45 46 47 48 49 50
000
ASUS44 KMEG 310410
RWRTN
TENNESSEE HOURLY STATE WEATHER ROUNDUP
NATIONAL WEATHER SERVICE MEMPHIS TN
1100 PM CDT THU OCT 30 2014

TNZ002-004-019-021-049-052-054-088>092-310500-
WEST TENNESSEE

CITY           SKY/WX    TMP DP  RH WIND       PRES   REMARKS
MEMPHIS INTL   MOCLDY    57  45  64 S7        30.00F
NWS MEMPHIS      N/A     56 N/A N/A MISG        N/A
JACKSON        CLOUDY    53  47  79 CALM      30.03S
DYERSBURG      CLOUDY    54  39  58 S3        30.04S
UNION CITY     CLOUDY    52  46  82 E5        30.01F
PARIS          MOCLDY    48  43  81 CALM      30.03F
HUNTINGDON     MOCLDY    48  44  86 CALM      30.03F
LEXINGTON      MOCLDY    45  43  93 CALM      30.02F
SAVANNAH       MOCLDY    45  45 100 CALM      30.04F
$$

TNZ008-025-027-028-033-062-065-066-310500-
NORTH MIDDLE TENNESSEE

CITY           SKY/WX    TMP DP  RH WIND       PRES   REMARKS
NASHVILLE      MOCLDY    50  44  80 CALM      30.05R
DICKSON        MOCLDY    52  39  62 E5        30.03F
PORTLAND       MOCLDY    41  39  93 CALM      30.04S
CLARKSVILLE    CLOUDY    50  45  83 CALM      30.04S
LEBANON        MOCLDY    41  40  96 CALM      30.02F
SMYRNA         PTCLDY    45  43  93 CALM      30.05F
MURFREESBORO   MOCLDY    46  42  86 CALM      30.03F
COOKEVILLE     CLEAR     36  36 100 CALM      30.04R
LIVINGSTON     CLEAR     43  38  82 CALM      30.04S
GALLATIN       MOCLDY    44  43  97 CALM      30.05S
CROSSVILLE     CLEAR     41  36  82 CALM      30.03F
ROCKWOOD       CLOUDY    46  37  70 NE5       30.01S
$$

TNZ061-075-076-078-094-096-097-310500-
SOUTH MIDDLE TENNESSEE

CITY           SKY/WX    TMP DP  RH WIND       PRES   REMARKS
FAYETTEVILLE   CLEAR     45  37  76 MISG      30.03S
TULLAHOMA      CLEAR     39  36  87 CALM      30.03F
WINCHESTER     CLEAR     39  37  93 CALM      30.04F
MCMINNVILLE    CLEAR     39  39 100 CALM      30.03F
COLUMBIA       MOCLDY    48  48 100 CALM      30.03S
SHELBYVILLE    CLEAR     43  39  87 CALM      30.04S
$$

TNZ017-018-042-046-047-310500-
NORTHEAST TENNESSEE

CITY           SKY/WX    TMP DP  RH WIND       PRES   REMARKS
TRI CITIES     PTCLDY    38  37  97 N3        30.02R
ELIZABETHTON   CLEAR     36  34  93 CALM      30.01F
$$

TNZ012-013-036-069-073-074-310500-
CENTRAL EAST TENNESSEE

CITY           SKY/WX    TMP DP  RH WIND       PRES   REMARKS
KNOXVILLE      PTCLDY    46  41  82 CALM      30.01S
OAK RIDGE      CLEAR     45  41  86 CALM      30.03F
GATLINBURG     CLEAR     39  37  93 CALM      30.01F
MORRISTOWN     CLEAR     43  39  87 CALM      30.01F
$$

TNZ083-085-099-310500-
SOUTHEAST TENNESSEE

CITY           SKY/WX    TMP DP  RH WIND       PRES   REMARKS
CHATTANOOGA    CLEAR     47  42  83 CALM      30.03R
$$

SKY/WX REPORTED AS FAIR MEANS FEW OR NO CLOUDS BELOW
12 THOUSAND FEET.




USA.gov is the U.S. government's official web portal to all federal, state and local government web resources and services.